Regional Weather Roundup
Issued by NWS

Home | Current Version | Previous Version | Graphics & Text | Print | Product List | Glossary On
Versions: 1 2 3 4 5 6 7 8 9 10 11 12 13 14 15 16 17 18 19 20 21 22 23 24 25 26 27 28
000
ASUS45 KTFX 260210
RWRMT
MONTANA REGIONAL WEATHER ROUNDUP
NATIONAL WEATHER SERVICE GREAT FALLS MT
800 PM MDT SUN JUN 25 2017

NOTE: "FAIR" INDICATES FEW OR NO CLOUDS BELOW 12000 FEET WITH NO
SIGNIFICANT WEATHER AND/OR OBSTRUCTIONS TO VISIBILITY.

MTZ001>007-043-260300-
WEST OF THE DIVIDE

CITY           SKY/WX    TMP DP  RH WIND       PRES   REMARKS
KALISPELL      SUNNY     83  44  25 CALM      30.06F
MISSOULA       MOSUNNY   86  45  23 W5        30.06F
BUTTE          SUNNY     78  39  24 SE9       30.23F
MULLAN PASS    SUNNY     74  37  26 CALM      30.25F
ANACONDA         N/A     77  45  31 N3        30.19F
DEER LODGE       N/A     81  36  19 CALM      30.20S
EUREKA           N/A     84  48  28 CALM      30.01F
HAMILTON         N/A     82  45  26 N5        30.08S
$$

MTZ008-052>055-260300-
SOUTHWEST MONTANA

CITY           SKY/WX    TMP DP  RH WIND       PRES   REMARKS
BOZEMAN        SUNNY     79  38  22 E5        30.20F
DILLON         SUNNY     78  46  32 NE10      30.19F
W YELLOWSTONE  SUNNY     75  27  16 N3        30.32S
ENNIS          SUNNY     75  43  31 N10       30.28S
THREE FORKS      N/A     79  42  26 E2        30.16F
$$

MTZ009-010-012-014-046-048-049-054-260300-
EAST SLOPES AND CENTRAL MONTANA

CITY           SKY/WX    TMP DP  RH WIND       PRES   REMARKS
CUT BANK       MOSUNNY   77  41  27 E9        30.16F
GREAT FALLS    SUNNY     76  36  23 E8        30.16S
MALMSTROM AFB  SUNNY     74  42  32 E7        30.16S
HELENA         SUNNY     83  38  20 E9        30.14S
CHOTEAU          N/A     77  43  29 E9G18     30.18F
CONRAD           N/A     75  53  46 NE3       30.17F
$$

MTZ011-013-016-021-045-047-050-051-260300-
NORTH CENTRAL MONTANA

CITY           SKY/WX    TMP DP  RH WIND       PRES   REMARKS
HAVRE          SUNNY     79  37  22 E3        30.16S
LEWISTOWN      SUNNY     75  37  25 N3        30.22S
N BAR RANCH      N/A     72  36  26 E8        30.27S
CHINOOK          N/A     79  37  22 SW3       30.16S
FORT BENTON      N/A     81  39  22 MISG      30.16S
$$

MTZ017>020-022>027-061-062-260300-
NORTHEAST MONTANA

CITY           SKY/WX    TMP DP  RH WIND       PRES   REMARKS
GLASGOW        CLEAR     76  35  22 NE12      30.18S
JORDAN           N/A     78  29  16 N5        30.18F
SIDNEY         CLEAR     70  43  37 NE9       30.21R
WOLF POINT     PTCLDY    77  35  21 NE10      30.18S
MALTA          SUNNY     75  39  27 E7        30.16F
PLENTYWOOD       N/A     68  39  34 CALM      30.22R
POPLAR           N/A     73  39  29 N7        30.20R
$$

MTZ028>42-056>058-260300-
SOUTHCENTRAL AND SOUTHEAST MONTANA

CITY           SKY/WX    TMP DP  RH WIND       PRES   REMARKS
BAKER          CLEAR     72  34  24 NE7       30.23S
BILLINGS       CLEAR     77  33  20 E8        30.20S
LIVINGSTON     SUNNY     78  45  30 NE3       30.21S
MILES CITY     CLEAR     77  28  16 N7        30.19S
BIG TIMBER     SUNNY     75  36  23 SE8       30.24S
FORSYTH          N/A     77  32  19 CALM      30.18F
ROUNDUP          N/A     77  31  18 NE6       30.10F
$$

REGIONAL REPORTS...DAKOTAS

CITY           SKY/WX    TMP DP  RH WIND       PRES   REMARKS
WILLISTON      CLEAR     70  43  37 NE10      30.22S
MINOT          CLEAR     62  41  46 NE7       30.22S
DICKINSON      CLEAR     65  37  35 NE10      30.21S
BEACH            N/A     68  39  34 NE8       30.25S
CROSBY           N/A     64  43  45 NE9       30.23S
TIOGA            N/A     63  43  48 NE7       30.24F
WATFORD CITY     N/A     66  43  42 NE8       30.21S
BISMARCK       CLEAR     66  45  46 NE10      30.22R
GRAND FORKS    PTCLDY    58  46  64 NE7       30.18R
FARGO          CLEAR     63  41  44 N10       30.17R
BUFFALO SD       N/A     70  37  29 NE15      30.17R
RAPID CITY     CLEAR     74  28  18 N14       30.19R
$$

REGIONAL REPORTS...WYOMING/IDAHO/WASHINGTON

CITY           SKY/WX    TMP DP  RH WIND       PRES   REMARKS
GILLETTE       CLEAR     72  33  24 N10       30.25S
SHERIDAN       CLEAR     71  41  33 N7        30.25S
BUFFALO WY     CLEAR     69  41  36 N7        30.31R
CODY           CLEAR     73  35  25 N13       30.28S
YELLOWSTONE LA   N/A     68  29  23 VRB3      30.42R
IDAHO FALLS    SUNNY     84  42  22 E8        30.18F
SALMON         SUNNY     84  52  32 CALM      30.05F
BOISE          SUNNY     95  28   9 CALM      29.96F
SPOKANE        MOSUNNY   92  36  14 E8        29.96F
$$

REGIONAL REPORTS...ALBERTA

CITY           SKY/WX    TMP DP  RH WIND       PRES   REMARKS
EDMONTON       SUNNY     73  52  46 SE14G22   30.03F
CALGARY        MOSUNNY   73  46  38 SE17G24   30.10F
LETHBRIDGE     PTSUNNY   77  52  41 E8        30.09F
MEDICINE HAT   MOSUNNY   75  43  31 NE15      30.13F
WATERTON GATE    N/A     77  48  36 E5          N/A
MILK RIVER       N/A     77  48  36 SE6         N/A
ONEFOUR          N/A     75  39  27 S3          N/A
$$

REGIONAL REPORTS...SASKATCHEWAN

CITY           SKY/WX    TMP DP  RH WIND       PRES   REMARKS
SWIFT CURRENT  SUNNY     66  37  34 N3        30.22F
REGINA         PTCLDY    63  36  36 NE12      30.24S
SASKATOON      MOSUNNY   68  39  34 SE7       30.23F
CYPRESS HILLS    N/A     64  39  39 E5          N/A
VAL MARIE        N/A     70  36  28 NE10        N/A
ROCKGLEN         N/A     64  37  36 NE5         N/A
ASSINIBOIA       N/A     72  48  43 SE12        N/A
$$




USA.gov is the U.S. government's official web portal to all federal, state and local government web resources and services.